Location: Aalen
(48.8330°N, 10.1000°E)
Time: 05:30:22
(UTC+02:00)

UWE-3 - Pass Details

Date: 03 April 2023
Orbit: 576 x 670 km, 97.7° (Epoch: 29 May)

Event Time Altitude Azimuth Distance (km) Brightness Sun altitude
Rises 05:48:25 0° 0° (N) 2,980 ? -11.2°
Reaches altitude 10° 05:51:18 10° 341° (NNW) 2,046 ? -10.8°
Maximum altitude 05:54:09 17° 301° (WNW) 1,605 ? -10.4°
Enters shadow 05:56:20 12° 267° (W) 1,851 ? -10.0°
